Weather History for Sandberg, CA

Change the Weather History Date:

Friday, November 9, 2012

  Actual Average Record
Temperature  
Mean Temperature 37 °F 51 °F  
Max Temperature 43 °F 58 °F 81 °F (2014)
Min Temperature 31 °F 45 °F 31 °F (2012)
Degree Days  
Heating Degree Days 28 14  
Month to date heating degree days 70 111  
Since 1 July heating degree days 257 412  
Cooling Degree Days 0 0  
Month to date cooling degree days 6 0  
Year to date cooling degree days 1360 996  
Moisture  
Dew Point 30 °F    
Average Humidity 77    
Maximum Humidity 100    
Minimum Humidity 54    
Precipitation  
Precipitation T in 0.02 in 0.59 in (1964)
Month to date precipitation T 0.20  
Year to date precipitation 4.36 9.50  
Since 1 July precipitation 0.09 1.02  
Sea Level Pressure  
Sea Level Pressure 29.86 in    
Wind  
Wind Speed 14 mph (NNW)    
Max Wind Speed 18 mph    
Max Gust Speed 27 mph    
Visibility 6 miles    
Events Fog , Snow    
T = Trace of Precipitation, MM = Missing Value Source: NWS Daily Summary

Daily Weather History Graph

Daily Weather History Graph

Search for Another Location

Airport:

Trip Planner

Search our weather history database for the weather conditions in past years. The results will help you decide how hot, cold, wet, or windy it might be!

Date:

Astronomy

Nov. 09, 2012 Rise Set
Actual Time 6:23 AM PST 4:53 PM PST
Civil Twilight 5:57 AM PST 5:20 PM PST
Nautical Twilight 5:26 AM PST 5:50 PM PST
Astronomical Twilight 4:57 AM PST 6:19 PM PST
Moon 1:38 AM PST (11/9) 2:00 PM PST (11/9)
Length of Visible Light 11h 22m
Length of Day
10h 29m
Waning Crescent, 22% of the Moon is Illuminated
Nov 9
Waning Crescent
Nov 13
New
Nov 20
First Quarter
Nov 28
Full
Dec 6
Last Quarter

Hourly Weather History & Observations

Time (PST) Temp. Windchill Dew Point Humidity Pressure Visibility Wind Dir Wind Speed Gust Speed Precip Events Conditions
12:48 AM 37.0 °F 27.7 °F 33.1 °F 86% 29.82 in 10.0 mi NW 16.1 mph - N/A   Overcast
1:48 AM 37.0 °F 27.7 °F 32.0 °F 82% 29.82 in 10.0 mi NW 16.1 mph 25.3 mph N/A   Clear
2:05 AM - - - N/A% - - North - - N/A   Unknown
2:25 AM 35.6 °F 26.2 °F 33.8 °F 93% 29.86 in 8.0 mi NNW 15.0 mph - N/A   Mostly Cloudy
2:29 AM 35.6 °F 26.2 °F 33.8 °F 93% 29.86 in 1.8 mi NNW 15.0 mph - N/A   Mostly Cloudy
2:32 AM 35.6 °F 24.8 °F 33.8 °F 93% 29.86 in 0.8 mi NNW 19.6 mph 23.0 mph N/A   Mostly Cloudy
2:41 AM 35.6 °F 25.2 °F 33.8 °F 93% 29.85 in 0.2 mi NNW 18.4 mph 26.5 mph N/A Fog Fog
2:48 AM 35.1 °F 24.8 °F 34.0 °F 96% 29.81 in 0.2 mi NW 17.3 mph 26.5 mph N/A Fog Fog
3:32 AM 35.6 °F 25.2 °F 33.8 °F 93% 29.85 in 0.5 mi NNW 18.4 mph 26.5 mph N/A Fog Fog
3:35 AM 35.6 °F 24.8 °F 33.8 °F 93% 29.84 in 1.5 mi NNW 19.6 mph 26.5 mph N/A   Overcast
3:48 AM 35.1 °F 24.8 °F 33.1 °F 92% 29.81 in 6.0 mi NNW 17.3 mph 26.5 mph N/A   Mostly Cloudy
4:00 AM 33.8 °F 22.5 °F 33.8 °F 100% 29.84 in 10.0 mi NNW 19.6 mph - N/A   Scattered Clouds
4:36 AM 33.8 °F 22.2 °F 32.0 °F 93% 29.85 in 10.0 mi NNW 20.7 mph 26.5 mph N/A   Mostly Cloudy
4:42 AM 33.8 °F 23.5 °F 32.0 °F 93% 29.85 in 1.5 mi NW 16.1 mph 27.6 mph N/A   Mostly Cloudy
4:44 AM 33.8 °F 23.2 °F 33.8 °F 100% 29.85 in 0.8 mi NNW 17.3 mph 27.6 mph N/A   Mostly Cloudy
4:48 AM 34.0 °F 23.0 °F 33.1 °F 96% 29.82 in 0.2 mi NW 18.4 mph - N/A Fog Fog
5:08 AM - - - N/A% - - North - - N/A   Unknown
5:37 AM 33.8 °F 22.8 °F 32.0 °F 93% 29.85 in 1.5 mi NNW 18.4 mph 23.0 mph N/A   Overcast
5:39 AM 33.8 °F 22.5 °F 32.0 °F 93% 29.85 in 3.0 mi NNW 19.6 mph - N/A   Overcast
5:48 AM 33.1 °F 23.4 °F 32.0 °F 96% 29.83 in 7.0 mi NNW 13.8 mph - N/A   Overcast
6:13 AM 32.0 °F 20.8 °F 30.2 °F 93% 29.86 in 1.5 mi NNW 17.3 mph - N/A   Mostly Cloudy
6:15 AM 32.0 °F 19.5 °F 30.2 °F 93% 29.86 in 0.8 mi NNW 21.9 mph - N/A   Mostly Cloudy
6:23 AM 32.0 °F 21.2 °F 30.2 °F 93% 29.86 in 0.2 mi NNW 16.1 mph 25.3 mph N/A Fog Fog
6:28 AM 32.0 °F 20.5 °F 30.2 °F 93% 29.86 in 0.2 mi NNW 18.4 mph - N/A Fog Fog
6:32 AM 32.0 °F 20.8 °F 30.2 °F 93% 29.86 in 0.5 mi NNW 17.3 mph 23.0 mph N/A Fog Fog
6:36 AM 32.0 °F 20.8 °F 30.2 °F 93% 29.86 in 1.8 mi NW 17.3 mph 23.0 mph N/A   Overcast
6:40 AM 32.0 °F 23.0 °F 30.2 °F 93% 29.86 in 9.0 mi NW 11.5 mph - N/A   Overcast
6:48 AM 32.0 °F 20.5 °F 30.9 °F 96% 29.84 in 9.0 mi NNW 18.4 mph - N/A   Overcast
7:11 AM 32.0 °F 21.6 °F 30.2 °F 93% 29.87 in 10.0 mi NNW 15.0 mph - N/A   Overcast
7:30 AM 32.0 °F 21.2 °F 30.2 °F 93% 29.88 in 10.0 mi NNW 16.1 mph 23.0 mph N/A   Scattered Clouds
7:48 AM 33.1 °F 23.0 °F 28.9 °F 85% 29.85 in 10.0 mi NNW 15.0 mph - N/A   Clear
8:48 AM 36.0 °F 27.5 °F 30.0 °F 79% 29.85 in 10.0 mi North 12.7 mph 21.9 mph N/A   Clear
9:05 AM 35.6 °F 26.2 °F 30.2 °F 81% 29.89 in 10.0 mi North 15.0 mph - N/A   Partly Cloudy
9:48 AM 39.0 °F 32.8 °F 30.0 °F 70% 29.85 in 10.0 mi North 9.2 mph - N/A   Clear
10:48 AM 39.9 °F 36.7 °F 28.9 °F 65% 29.86 in 10.0 mi Variable 4.6 mph - N/A   Clear
11:48 AM 41.0 °F 34.3 °F 30.0 °F 65% 29.83 in 10.0 mi NNW 11.5 mph - N/A   Mostly Cloudy
12:48 PM 42.1 °F 36.1 °F 28.9 °F 60% 29.82 in 10.0 mi NNW 10.4 mph - N/A   Partly Cloudy
2:48 PM 39.9 °F 31.8 °F 28.0 °F 63% 29.81 in 10.0 mi NNW 15.0 mph - N/A   Clear
3:48 PM 39.9 °F 30.8 °F 25.0 °F 55% 29.82 in 10.0 mi NNW 18.4 mph 25.3 mph N/A   Clear
4:48 PM 37.0 °F 28.5 °F 27.0 °F 67% 29.84 in 10.0 mi North 13.8 mph 23.0 mph N/A   Clear
5:33 PM 35.6 °F 26.6 °F 30.2 °F 81% 29.87 in 10.0 mi NW 13.8 mph - 0.00 in   Mostly Cloudy
5:42 PM 35.6 °F 27.1 °F 30.2 °F 81% 29.87 in 10.0 mi NNW 12.7 mph - 0.00 in   Scattered Clouds
5:48 PM 35.1 °F 27.9 °F 30.0 °F 82% 29.87 in 10.0 mi North 9.2 mph - 0.00 in   Scattered Clouds
6:48 PM 34.0 °F 23.4 °F 28.9 °F 82% 29.88 in 10.0 mi NNW 17.3 mph - N/A   Scattered Clouds
7:28 PM 32.0 °F 19.8 °F 28.4 °F 87% 29.89 in 7.0 mi NNW 20.7 mph 27.6 mph 0.00 in Snow Light Snow
7:44 PM 32.0 °F 20.1 °F 28.4 °F 87% 29.90 in 2.5 mi NNW 19.6 mph - 0.00 in Snow Light Snow
7:48 PM 30.9 °F 19.1 °F 28.9 °F 92% 29.91 in 1.5 mi NW 18.4 mph - 0.00 in Snow Light Snow
7:50 PM 30.2 °F 18.9 °F 28.4 °F 93% 29.90 in 1.2 mi NW 16.1 mph - 0.00 in Snow Light Snow
8:00 PM 30.2 °F 19.3 °F 28.4 °F 93% 29.90 in 2.0 mi NW 15.0 mph - 0.00 in Snow Light Snow
8:02 PM 30.2 °F 19.3 °F 28.4 °F 93% 29.90 in 3.0 mi NW 15.0 mph - 0.00 in Snow Light Snow
8:10 PM 30.2 °F 18.9 °F 28.4 °F 93% 29.90 in 9.0 mi NNW 16.1 mph - 0.00 in   Scattered Clouds
8:48 PM 30.9 °F 20.2 °F 27.0 °F 85% 29.91 in 10.0 mi NNW 15.0 mph - 0.00 in   Partly Cloudy
9:48 PM 32.0 °F 22.1 °F 28.0 °F 85% 29.92 in 10.0 mi NNW 13.8 mph - N/A   Mostly Cloudy
10:48 PM 30.9 °F 20.2 °F 27.0 °F 85% 29.91 in 10.0 mi NNW 15.0 mph - N/A   Clear
11:34 PM 30.2 °F 19.3 °F 26.6 °F 86% 29.91 in 10.0 mi NNW 15.0 mph - N/A   Mostly Cloudy
11:48 PM 30.9 °F 20.7 °F 27.0 °F 85% 29.90 in 10.0 mi NNW 13.8 mph - N/A   Mostly Cloudy
11:52 PM 30.2 °F 18.9 °F 26.6 °F 86% 29.91 in 10.0 mi NNW 16.1 mph 20.7 mph N/A   Mostly Cloudy